G4KVI Weather Reports


time (UTC)temp
C
wind
direction
speed
KPH
gust
KPH
rain 1hr
cm
rain 24hr
cm
rain mn
cm
humidity
%
barometer
mb
20260502221505 11 298 0.0 1.6 0.00 0.99 0.99 96 1013.2
20260502221005 11 299 0.0 1.6 0.00 0.99 0.99 95 1013.2
20260502220505 11 0 0.0 0.0 0.00 0.99 0.99 95 1013.2
20260502220005 11 0 0.0 0.0 0.00 0.99 0.99 95 1013.0
20260502215505 11 0 0.0 0.0 0.00 0.99 0.99 95 1013.1
20260502215005 11 0 0.0 0.0 0.00 0.99 0.99 95 1013.0
20260502214505 11 0 0.0 0.0 0.00 0.99 0.99 95 1013.3
20260502214005 11 0 0.0 0.0 0.00 0.99 0.99 95 1013.1
20260502213505 11 0 0.0 0.0 0.00 0.99 0.99 95 1012.9
20260502213005 11 0 0.0 0.0 0.00 0.99 0.99 95 1013.0
20260502212505 11 0 0.0 0.0 0.00 0.99 0.99 95 1013.2
20260502212005 11 0 0.0 0.0 0.00 0.99 0.99 95 1013.1
20260502211505 11 0 0.0 0.0 0.00 0.99 0.99 95 1012.7
20260502211005 11 0 0.0 0.0 0.00 0.99 0.99 95 1013.1
20260502210505 11 0 0.0 0.0 0.00 0.99 0.99 95 1012.9
20260502210005 11 0 0.0 0.0 0.00 0.99 0.99 95 1013.0
20260502205505 11 300 0.0 1.6 0.00 0.99 0.99 95 1013.2
20260502205005 11 299 0.0 3.2 0.03 0.99 0.99 95 1013.0
20260502204505 11 299 0.0 3.2 0.03 0.99 0.99 95 1013.1
20260502204005 11 298 0.0 1.6 0.03 0.99 0.99 95 1013.1
20260502203505 11 298 0.0 1.6 0.03 0.99 0.99 95 1013.3
20260502203005 11 298 0.0 1.6 0.03 0.99 0.99 95 1013.2
20260502202505 11 298 1.6 3.2 0.03 0.99 0.99 95 1013.2
20260502202005 11 304 1.6 4.8 0.03 0.99 0.99 95 1013.2
20260502201505 11 303 1.6 4.8 0.03 0.99 0.99 95 1013.3
20260502201005 11 312 1.6 3.2 0.03 0.99 0.99 95 1013.2
20260502200505 11 321 1.6 3.2 0.03 0.99 0.99 95 1013.3
20260502200005 11 304 1.6 3.2 0.03 0.99 0.99 95 1013.2
20260502195505 11 282 0.0 3.2 0.03 0.99 0.99 95 1013.5
20260502195005 11 280 0.0 3.2 0.00 0.97 0.97 94 1013.4
20260502194505 11 263 0.0 1.6 0.00 0.97 0.97 95 1013.3
20260502194005 11 262 0.0 1.6 0.00 0.97 0.97 94 1013.5
20260502193505 11 270 0.0 1.6 0.00 0.97 0.97 94 1013.4
20260502193005 11 271 0.0 1.6 0.03 0.97 0.97 94 1013.7
20260502192505 12 272 0.0 1.6 0.03 0.97 0.97 94 1013.5
20260502192005 12 272 0.0 1.6 0.03 0.97 0.97 94 1013.4
20260502191505 12 272 0.0 1.6 0.03 0.97 0.97 94 1013.6
20260502191005 12 272 0.0 1.6 0.05 0.97 0.97 94 1013.4
20260502190505 12 275 0.0 1.6 0.05 0.97 0.97 94 1013.4
20260502190005 12 277 0.0 1.6 0.05 0.97 0.97 94 1013.2
20260502185505 12 279 0.0 1.6 0.05 0.97 0.97 94 1013.5
20260502185005 12 281 0.0 1.6 0.08 0.97 0.97 94 1013.4
20260502184505 12 288 0.0 1.6 0.13 0.97 0.97 94 1013.4
20260502184005 12 0 0.0 0.0 0.15 0.97 0.97 94 1013.7
20260502183505 12 293 0.0 1.6 0.18 0.97 0.97 94 1013.6
20260502183005 12 293 0.0 1.6 0.20 0.94 0.94 94 1013.4
20260502182505 12 0 0.0 0.0 0.23 0.94 0.94 94 1013.7
20260502182005 12 292 0.0 1.6 0.23 0.94 0.94 94 1013.7
20260502181505 12 293 0.0 1.6 0.25 0.94 0.94 94 1013.5
20260502181005 12 293 0.0 1.6 0.25 0.91 0.91 93 1013.6
20260502180505 12 294 0.0 1.6 0.28 0.91 0.91 93 1013.4
20260502170505 12 59 0.0 1.6 0.08 0.64 0.64 91 1014.2
20260502164005 12 54 0.0 1.6 0.13 0.64 0.64 91 1014.3
20260502163505 12 66 0.0 1.6 0.15 0.64 0.64 90 1014.3
20260502163005 12 67 0.0 1.6 0.18 0.64 0.64 90 1014.3
20260502162505 12 64 1.6 1.6 0.23 0.64 0.64 90 1014.2
20260502162005 12 49 1.6 1.6 0.28 0.64 0.64 90 1014.2
20260502161505 12 311 0.0 3.2 0.30 0.61 0.61 89 1014.3
20260502161005 12 320 1.6 3.2 0.33 0.58 0.58 89 1014.3
20260502160505 12 335 1.6 3.2 0.36 0.56 0.56 89 1014.3
20260502152005 13 141 0.0 1.6 0.36 0.38 0.36 86 1015.5
20260502151505 13 141 0.0 1.6 0.30 0.33 0.30 85 1015.5
20260502151005 13 137 0.0 1.6 0.25 0.28 0.25 85 1015.7
20260502150505 13 135 0.0 1.6 0.20 0.23 0.20 84 1015.5
20260502130505 17 119 4.8 4.8 0.00 0.03 0.00 56 1016.5
20260502123505 17 140 3.2 6.4 0.00 0.03 0.00 56 1016.7
20260502123005 17 112 3.2 9.7 0.00 0.03 0.00 56 1016.9
20260502122505 17 119 3.2 9.7 0.00 0.03 0.00 56 1017.1
20260502122005 17 124 4.8 6.4 0.00 0.03 0.00 56 1017.0
20260502121505 17 127 3.2 6.4 0.00 0.03 0.00 55 1017.1
20260502121005 17 142 1.6 6.4 0.00 0.03 0.00 57 1017.1
20260502120505 17 88 6.4 6.4 0.00 0.03 0.00 55 1017.4
20260502115505 17 111 4.8 6.4 0.00 0.03 0.00 55 1017.4
20260502115005 17 141 3.2 4.8 0.00 0.03 0.00 56 1017.6
20260502114505 17 138 3.2 4.8 0.00 0.03 0.00 56 1017.6
20260502114005 18 100 4.8 3.2 0.00 0.03 0.00 55 1017.3
20260502113505 18 100 4.8 3.2 0.00 0.03 0.00 55 1017.6
20260502113005 18 97 3.2 4.8 0.00 0.03 0.00 55 1017.4
20260502112505 18 88 1.6 4.8 0.00 0.03 0.00 55 1017.5
20260502112005 18 9 1.6 3.2 0.00 0.03 0.00 54 1017.7
20260502111505 17 114 1.6 9.7 0.00 0.03 0.00 56 1017.7
20260502111005 17 120 3.2 9.7 0.00 0.03 0.00 57 1017.8
20260502110505 17 107 4.8 12.9 0.00 0.03 0.00 59 1018.0
20260502110005 16 104 4.8 12.9 0.00 0.03 0.00 61 1017.9
20260502105505 16 122 4.8 11.3 0.00 0.03 0.00 59 1018.3
20260502105005 17 112 4.8 11.3 0.00 0.03 0.00 59 1018.3
20260502104505 17 92 1.6 11.3 0.00 0.03 0.00 58 1018.2
20260502104005 16 100 3.2 9.7 0.00 0.03 0.00 60 1018.5
20260502103505 16 103 4.8 9.7 0.00 0.03 0.00 62 1018.6
20260502103005 16 114 4.8 9.7 0.00 0.03 0.00 62 1018.7
20260502102505 16 138 3.2 9.7 0.00 0.03 0.00 61 1018.8
20260502102005 16 121 4.8 11.3 0.00 0.03 0.00 61 1018.6
20260502101505 16 101 4.8 11.3 0.00 0.03 0.00 63 1018.9
20260502101005 16 104 4.8 11.3 0.00 0.03 0.00 62 1019.1
20260502100505 16 120 4.8 12.9 0.00 0.03 0.00 62 1019.1
20260502091505 15 108 3.2 6.4 0.00 0.03 0.00 67 1019.1
20260502091005 14 104 3.2 9.7 0.00 0.03 0.00 68 1019.3
20260502090505 15 108 4.8 11.3 0.00 0.03 0.00 68 1019.3
20260502071504 10 125 0.0 1.6 0.00 0.03 0.00 93 1020.3
20260502071005 10 117 1.6 3.2 0.00 0.03 0.00 94 1020.1
20260502070504 10 110 1.6 3.2 0.00 0.03 0.00 93 1020.2
20260502070005 9 101 0.0 1.6 0.00 0.03 0.00 93 1020.1
20260502065504 9 0 0.0 0.0 0.00 0.03 0.00 93 1020.2
20260502065004 9 0 0.0 0.0 0.00 0.03 0.00 93 1020.0
20260502064505 9 0 0.0 0.0 0.00 0.03 0.00 93 1020.2
20260502064005 9 0 0.0 0.0 0.00 0.03 0.00 93 1020.2
20260502063504 9 102 0.0 1.6 0.00 0.03 0.00 93 1020.3
20260502063004 9 102 0.0 1.6 0.00 0.03 0.00 93 1020.2
20260502062504 9 102 0.0 1.6 0.00 0.03 0.00 93 1020.2
20260502062004 9 102 0.0 1.6 0.00 0.03 0.00 93 1020.2
20260502061505 8 101 0.0 1.6 0.00 0.03 0.00 93 1020.1
20260502061004 8 0 0.0 0.0 0.00 0.03 0.00 93 1020.3
20260502060504 8 0 0.0 0.0 0.00 0.03 0.00 92 1020.5
20260502060005 8 0 0.0 0.0 0.00 0.03 0.00 92 1020.2
20260502055504 8 0 0.0 0.0 0.00 0.03 0.00 92 1020.1
20260502055004 8 0 0.0 0.0 0.00 0.03 0.00 92 1020.4
20260502054504 8 0 0.0 0.0 0.00 0.03 0.00 92 1020.4
20260502054004 8 0 0.0 0.0 0.00 0.03 0.00 92 1020.5
20260502053504 7 0 0.0 0.0 0.00 0.03 0.00 92 1020.2
20260502053004 7 0 0.0 0.0 0.00 0.03 0.00 92 1020.4
20260502052505 7 0 0.0 0.0 0.00 0.03 0.00 92 1020.3
20260502052004 7 0 0.0 0.0 0.00 0.03 0.00 92 1020.2
20260502051504 7 0 0.0 0.0 0.00 0.03 0.00 92 1020.3
20260502051005 7 0 0.0 0.0 0.00 0.03 0.00 92 1020.2
20260502050504 7 0 0.0 0.0 0.00 0.03 0.00 92 1020.3
20260502050005 6 0 0.0 0.0 0.00 0.03 0.00 92 1020.1
20260502045504 6 0 0.0 0.0 0.00 0.03 0.00 92 1020.1
20260502045005 6 0 0.0 0.0 0.00 0.03 0.00 92 1020.2
20260502044505 6 0 0.0 0.0 0.00 0.03 0.00 92 1020.2
20260502044004 6 0 0.0 0.0 0.00 0.03 0.00 92 1020.4
20260502043504 6 101 0.0 1.6 0.00 0.03 0.00 92 1020.2
20260502043004 6 101 0.0 1.6 0.00 0.03 0.00 92 1020.1
20260502042504 6 101 0.0 1.6 0.00 0.03 0.00 92 1020.2
20260502042004 6 101 0.0 1.6 0.00 0.03 0.00 92 1020.4
20260502041504 6 101 0.0 1.6 0.00 0.03 0.00 92 1020.4
20260502041004 6 0 0.0 0.0 0.00 0.03 0.00 92 1020.1
20260502040504 6 0 0.0 0.0 0.00 0.03 0.00 92 1020.1
20260502040004 6 0 0.0 0.0 0.00 0.03 0.00 92 1020.3
20260502035504 6 0 0.0 0.0 0.00 0.03 0.00 92 1020.5
20260502035004 6 0 0.0 0.0 0.00 0.03 0.00 91 1020.6
20260502034504 6 0 0.0 0.0 0.00 0.03 0.00 91 1020.4
20260502034004 6 0 0.0 0.0 0.00 0.03 0.00 91 1020.7
20260502033504 6 0 0.0 0.0 0.00 0.03 0.00 91 1020.7
20260502033004 6 0 0.0 0.0 0.00 0.03 0.00 91 1020.8
20260502032504 6 0 0.0 0.0 0.00 0.03 0.00 91 1020.6
20260502032004 6 0 0.0 0.0 0.00 0.03 0.00 91 1020.7
20260502031504 6 0 0.0 0.0 0.00 0.03 0.00 91 1020.7
20260502031004 6 0 0.0 0.0 0.00 0.03 0.00 91 1020.9
20260502030504 6 0 0.0 0.0 0.00 0.03 0.00 91 1020.8
20260502030004 6 0 0.0 0.0 0.00 0.03 0.00 91 1020.8
20260502025504 6 0 0.0 0.0 0.00 0.03 0.00 91 1020.8
20260502025004 6 0 0.0 0.0 0.00 0.03 0.00 91 1020.8
20260502024504 6 0 0.0 0.0 0.00 0.03 0.00 91 1020.8
20260502024004 6 0 0.0 0.0 0.00 0.03 0.00 91 1020.8
20260502023504 6 0 0.0 0.0 0.00 0.03 0.00 90 1020.9
20260502023004 6 0 0.0 0.0 0.00 0.03 0.00 90 1020.9
20260502022504 6 0 0.0 0.0 0.00 0.03 0.00 90 1021.0
20260502022004 6 0 0.0 0.0 0.00 0.03 0.00 90 1021.0
20260502021504 6 0 0.0 0.0 0.00 0.03 0.00 90 1020.9
20260502021004 6 0 0.0 0.0 0.00 0.03 0.00 90 1020.9
20260502020504 6 0 0.0 0.0 0.00 0.03 0.00 90 1021.1
20260502020004 6 0 0.0 0.0 0.00 0.03 0.00 90 1021.1
20260502015504 6 0 0.0 0.0 0.00 0.03 0.00 90 1021.3
20260502015004 6 0 0.0 0.0 0.00 0.03 0.00 90 1021.2
20260502014504 6 0 0.0 0.0 0.00 0.03 0.00 89 1021.2
20260502014004 6 0 0.0 0.0 0.00 0.03 0.00 89 1021.1
20260502013504 6 0 0.0 0.0 0.00 0.03 0.00 89 1021.3
20260502013004 6 0 0.0 0.0 0.00 0.03 0.00 89 1021.2
20260502012504 7 0 0.0 0.0 0.00 0.03 0.00 88 1021.4
20260502012004 7 0 0.0 0.0 0.00 0.03 0.00 88 1021.3
20260502011504 7 0 0.0 0.0 0.00 0.03 0.00 88 1021.3
20260502011004 7 0 0.0 0.0 0.00 0.03 0.00 88 1021.3
20260502010504 7 0 0.0 0.0 0.00 0.03 0.00 87 1021.2
20260502010004 7 0 0.0 0.0 0.00 0.03 0.00 87 1021.4
20260502005504 7 101 0.0 3.2 0.00 0.03 0.00 87 1021.6
20260502005004 7 101 0.0 3.2 0.00 0.03 0.00 86 1021.3
20260502004504 7 0 0.0 0.0 0.00 0.03 0.00 86 1021.2
20260502004004 8 273 0.0 1.6 0.00 0.03 0.00 86 1021.8
20260502003504 8 273 0.0 1.6 0.00 0.03 0.00 86 1021.5
20260502003004 8 0 0.0 0.0 0.00 0.03 0.00 85 1021.6
20260502002504 8 0 0.0 0.0 0.00 0.03 0.00 85 1021.7
20260502002004 8 0 0.0 0.0 0.00 0.03 0.00 84 1021.5
20260502001504 8 0 0.0 0.0 0.00 0.03 0.00 84 1021.7
20260502001004 9 0 0.0 0.0 0.00 0.03 0.00 83 1021.7
20260502000504 9 0 0.0 0.0 0.00 0.03 0.00 82 1021.6
20260502000004 9 286 0.0 1.6 0.00 0.03 0.00 82 1021.5
20260501235504 10 286 0.0 1.6 0.00 0.03 0.00 82 1021.6
20260501235004 10 286 0.0 3.2 0.00 0.03 0.00 81 1021.6
20260501234504 10 286 0.0 3.2 0.00 0.03 0.00 81 1021.6
20260501234004 10 281 0.0 3.2 0.00 0.03 0.00 81 1021.8
20260501233504 10 277 0.0 3.2 0.00 0.03 0.00 82 1021.9
20260501233004 10 276 0.0 1.6 0.00 0.03 0.00 82 1021.9
20260501232504 10 278 0.0 1.6 0.00 0.03 0.00 82 1022.0
20260501232004 10 278 0.0 1.6 0.00 0.03 0.00 82 1022.1
20260501231504 10 0 0.0 0.0 0.00 0.03 0.00 82 1022.1
20260501231004 9 325 1.6 1.6 0.00 0.03 0.00 83 1022.1
20260501230504 9 325 1.6 1.6 0.00 0.03 0.00 83 1022.2
20260501230004 9 325 1.6 1.6 0.00 0.03 0.00 83 1022.2
20260501225504 9 325 1.6 1.6 0.00 0.03 0.03 83 1022.0
20260501225004 9 325 1.6 1.6 0.00 0.03 0.03 83 1022.2
20260501224505 9 325 0.0 1.6 0.00 0.03 0.03 83 1022.1
20260501224004 9 5 0.0 1.6 0.00 0.03 0.03 83 1022.3
20260501223504 9 44 0.0 1.6 0.00 0.03 0.03 83 1022.2
20260501223004 9 27 0.0 1.6 0.00 0.03 0.03 83 1022.3
20260501222504 9 294 0.0 1.6 0.00 0.03 0.03 83 1022.2
20260501222004 9 285 0.0 1.6 0.00 0.03 0.03 82 1022.1